Regional Weather Roundup
Issued by NWS

Home | Current Version | Previous Version | Graphics & Text | Print | Product List | Glossary On
Versions: 1 2 3 4 5 6 7 8 9 10 11 12 13 14 15 16 17 18 19 20 21 22 23 24 25 26 27 28 29 30 31 32 33 34 35 36 37 38 39 40 41 42 43 44 45 46 47 48 49 50
000
ASUS43 KLOT 262121
RWRIL

ILLINOIS REGIONAL WEATHER ROUNDUP
NATIONAL WEATHER SERVICE CHICAGO/ROMEOVILLE IL
400 PM CDT TUE MAY 26 2015

NOTE: "FAIR" INDICATES FEW OR NO CLOUDS BELOW 12,000 FEET WITH NO
SIGNIFICANT WEATHER AND/OR OBSTRUCTIONS TO VISIBILITY.

* THESE STATIONS ARE NOT UNDER NWS QUALITY CONTROL. THEY ALSO MAY NOT
  REPORT WEATHER SUCH AS PRECIPITATION OR FOG.

ILZ001-002-007-009-015-016-024-262200-
NORTHWEST ILLINOIS

CITY           SKY/WX    TMP DP  RH WIND       PRES   REMARKS
MOLINE         PTSUNNY   73  59  61 SW18G33   29.77R
STERLING*      PTSUNNY  N/A N/A N/A W23G35    29.76R
SAVANNA*       PTSUNNY   72  60  67 SW18G33   29.74R
$$

ILZ003-004-008-010-011-017-018-262200-
NORTH CENTRAL ILLINOIS

CITY           SKY/WX    TMP DP  RH WIND       PRES   REMARKS
ROCKFORD       MOSUNNY   74  62  66 S22G29    29.74S
FREEPORT*      PTSUNNY   71  62  74 SW30G40   29.73R
ROCHELLE*      MOSUNNY   72  65  76 SW24G32   29.75F
DE KALB*       LGT RAIN  65  61  85 SW18G31   29.78R
PERU*          MOSUNNY   73  63  69 SW18G25   29.79S
$$

ILZ005-006-012>014-019>023-262200-
NORTHEAST ILLINOIS

CITY           SKY/WX    TMP DP  RH WIND       PRES   REMARKS
CHICAGO-OHARE  PTSUNNY   73  63  70 S17       29.76F
CHICAGO-MIDWAY PTSUNNY   77  65  66 SW14      29.77F
AURORA         PTSUNNY   75  62  64 S20G29    29.76F
LANSING*       CLOUDY    74  63  69 SW17      29.81F
JOLIET*        MOSUNNY   78  67  70 SW10G20   29.78F HX  80
WAUKEGAN       PTSUNNY   75  63  66 S16G25    29.73F
DUPAGE AIRPORT PTSUNNY   75  64  68 S13G23    29.75F
KANKAKEE*      RAIN      73  65  77 SW20G30   29.83R
WHEELING       PTSUNNY   75  63  66 S17G25    29.76F
MORRIS*        PTSUNNY   75  63  65 SW18G31   29.77S
ROMEOVILLE*    MOSUNNY   75  65  70 SW18G29   29.77F
NORTHERLY ISL    N/A     73  61  65 S21         N/A
$$

LMZ740>746-262200-
SOUTHERN LAKE MICHIGAN

STATION/POSITION SKY/WX   TEMP    WIND        PRES    VSBY  WAVE
                          AIR SEA DIR/SP/G                  HT/PER
                          (F)     (DEG/KT/KT) (MB)    (MI)  (FT/S)
SOUTHERN BUOY              48 38  190/ 16/ 17 1008.4R
HARRISON CRIB              70     200/ 21/ 25   N/A
BURNHAM HARBOR             74     180/ 14/ 22   N/A
CALUMET HARBOR             73     180/  8/ 12   N/A
BURNS HARBOR               69     200/ 15/ 19 1010.2S
MICHIGAN CITY              71     180/ 19/ 24   N/A
MICHIGAN CITY 6N           65 52  220/ 16/ 21   N/A           2/ 3
ST. JOSEPH                 59 55  230/  6/  8   N/A           2/ 3
$$

ILZ025>027-034>036-040-047-049-050-058-095>099-262200-
WEST-CENTRAL ILLINOIS

CITY           SKY/WX    TMP DP  RH WIND       PRES   REMARKS
QUINCY         CLOUDY    75  60  59 SW14G22   29.86R
GALESBURG*     CLOUDY    73  62  68 SW20G25   29.82R
MACOMB*        MOSUNNY   75  61  61 W23G29    29.85S
JACKSONVILLE*  PTSUNNY   76  66  71 SW13G20   29.87S
PITTSFIELD*    MOSUNNY   77  60  56 SW14G22   29.88S
$$

ILZ028>032-037-038-041>044-048-051>054-059>061-262200-
CENTRAL ILLINOIS

CITY           SKY/WX    TMP DP  RH WIND       PRES   REMARKS
PONTIAC        CLOUDY    70  65  82 SW30G43   29.83R
BLOOMINGTON    LGT RAIN  69  66  90 SW17G28   29.87R
DECATUR        PTSUNNY   76  59  55 SW23G30   29.87S
PEORIA         CLOUDY    75  61  61 SW17G26   29.83R
LACON*         MOSUNNY   72  63  73 SW12G18   29.80S
LINCOLN*       MOSUNNY   74  65  72 SW7G21    29.85R
SPRINGFIELD    PTSUNNY   75  64  68 SW15G23   29.88S
TAYLORVILLE    CLOUDY    66  63  88 W14       29.90R
$$

ILZ033-039-045-046-055>057-062-063-262200-
EAST-CENTRAL ILLINOIS

CITY           SKY/WX    TMP DP  RH WIND       PRES   REMARKS
CHAMPAIGN      PTSUNNY   77  62  59 S23G39    29.87R
DANVILLE*      MOSUNNY   78  64  61 SW23G33   29.84S HX  80
RANTOUL*       PTSUNNY   78  67  68 SW16G25   29.86R HX  80
MATTOON        PTSUNNY   76  60  57 SW17G29   29.90R
PARIS*         MOSUNNY   83  56  39 SW33G39   29.89S HX  82
$$

ILZ079-100>102-262200-
SOUTHWEST ILLINOIS

CITY           SKY/WX    TMP DP  RH WIND       PRES   REMARKS
ALTON          PTSUNNY   75  64  69 SW14      29.92S
BELLEVILLE     PTSUNNY   76  62  61 SW15G22   29.92S
CAHOKIA*       PTSUNNY   77  60  55 SW9G21    29.92S
SPARTA*        PTSUNNY   75  62  63 SW13G20   29.96S
$$

ILZ064>066-069>071-074>076-080>082-084>086-088>090-092>094-262200-
SOUTH-CENTRAL ILLINOIS

CITY           SKY/WX    TMP DP  RH WIND       PRES   REMARKS
CARBONDALE     CLOUDY    75  62  64 SW16      29.96F
CAIRO*         PTSUNNY   76  65  67 SW13G20   30.00S
EFFINGHAM*     PTSUNNY   79  56  45 S17G25    29.93S HX  80
MARION         CLOUDY    75  63  64 MISG      29.98S
MT. VERNON     CLOUDY    75  61  60 SW18G28   29.96S
CENTRALIA*     MOSUNNY   79  58  47 SW18G24   29.94S HX  80
SALEM*         PTSUNNY   80  59  48 SW18G25   29.93S HX  80
METROPOLIS*    CLOUDY    77  63  62 SW10G17   29.99S
$$

ILZ067-068-072-073-078-083-087-091-262200-
SOUTHEAST ILLINOIS

CITY           SKY/WX    TMP DP  RH WIND       PRES   REMARKS
LAWRENCEVILLE  PTSUNNY   80  60  50 SW24G37   29.94R HX  81
FLORA*         MOSUNNY   76  60  58 SW17G25   29.94S
FAIRFIELD*     CLOUDY    76  60  57 SW14G26   29.94S
HARRISBURG*    PTSUNNY   77  62  59 SW16G23   29.99S
ROBINSON*      PTSUNNY   79  56  44 SW28G36   29.93S HX  80
CARMI*         PTSUNNY   81  54  39 SW21G28   29.96F HX  80
$$

ABBREVIATIONS USED IN REMARKS
   TC - TEMPERATURE IN CELSIUS
  WCI - WIND CHILL INDEX
   HX - HEAT INDEX
  VSB - VISIBILITY
$$



USA.gov is the U.S. government's official web portal to all federal, state and local government web resources and services.